This is the latest recevied weather packets stored in our database for station/object KB4KY. If no packets are shown the sender has not sent any weather packets the latest 10 day(s).
| Time | Temp. | Humidity | Pressure | Rain* | Wind** | Luminosity | Snow |
|---|---|---|---|---|---|---|---|
| 1778107448 | 15.56° C | 60% | 1012.5 hPa | 0 mm | - | - | - |
| 1778107147 | 15.56° C | 61% | 1012.1 hPa | 0 mm | - | - | - |
| 1778106848 | 15.56° C | 62% | 1011.8 hPa | 0 mm | - | - | - |
| 1778106547 | 15.56° C | 62% | 1011.7 hPa | 0 mm | - | - | - |
| 1778106248 | 15.56° C | 62% | 1011 hPa | 0 mm | - | - | - |
| 1778105946 | 16.11° C | 62% | 1011.9 hPa | 0 mm | - | - | - |
| 1778105648 | 16.11° C | 61% | 1011.4 hPa | 0 mm | - | - | - |
| 1778105345 | 16.11° C | 60% | 1011.8 hPa | 0 mm | - | - | - |
| 1778105045 | 16.11° C | 60% | 1011.4 hPa | 0 mm | - | - | - |
| 1778104746 | 16.11° C | 60% | 1010.9 hPa | 0 mm | - | - | - |
| 1778104447 | 16.11° C | 62% | 1011 hPa | 0 mm | - | - | - |
| 1778104144 | 16.11° C | 61% | 1011 hPa | 0 mm | - | - | - |
| 1778103846 | 16.11° C | 60% | 1011 hPa | 0 mm | - | - | - |
| 1778103579 | 16.11° C | 62% | 1010.9 hPa | 0 mm | - | - | - |
| 1778103544 | 16.11° C | 62% | 1010.9 hPa | 0 mm | - | - | - |
| 1778103279 | 16.11° C | 62% | 1010.7 hPa | 0 mm | - | - | - |
| 1778103243 | 16.11° C | 62% | 1010.7 hPa | 0 mm | - | - | - |
| 1778102943 | 16.11° C | 60% | 1010.9 hPa | 0 mm | - | - | - |
| 1778102643 | 16.11° C | 62% | 1011.4 hPa | 0 mm | - | - | - |
| 1778102342 | 16.67° C | 62% | 1011.7 hPa | 0 mm | - | - | - |
| 1778102042 | 16.67° C | 62% | 1011.8 hPa | 0 mm | - | - | - |
| 1778101742 | 16.67° C | 66% | 1011.9 hPa | 0 mm | - | - | - |
| 1778101441 | 16.67° C | 64% | 1011.8 hPa | 0 mm | - | - | - |
| 1778101141 | 17.22° C | 63% | 1011.5 hPa | 0 mm | - | - | - |
| 1778100841 | 17.22° C | 60% | 1011.4 hPa | 0 mm | - | - | - |
* Rain latest hour (hover to see other rain measurements)
** Current wind speed in m/s (hover to see current wind gust speed)